Regional Weather Roundup
Issued by NWS

Home | Current Version | Previous Version | Graphics & Text | Print | Product List | Glossary On
Versions: 1 2 3 4 5 6 7 8 9 10 11 12 13 14 15 16 17 18 19 20 21 22 23 24 25 26 27 28 29 30 31 32 33 34 35 36 37 38 39 40 41 42 43 44 45 46 47 48 49 50
000
ASUS45 KABQ 220301
RWRNM
WEATHER ROUNDUP FOR NEW MEXICO
NATIONAL WEATHER SERVICE ALBUQUERQUE NM
800 PM MST SUN DEC 21 2014

NOTE: "FAIR" MEANS FEW OR NO CLOUDS BELOW 12,000 FEET AGL WITH NO
       SIGNIFICANT WEATHER OR OBSTRUCTIONS TO VISION.

      THIS PRODUCT IS RELEASED AS TWO VERSIONS.  ONE VERSION NEAR
      THE TOP OF THE HOUR CONTAINING PRELIMINARY DATA FROM ALBUQUERQUE
      AND OTHER STATIONS.  A FINAL VERSION WITH ADDITIONAL DATA IS
      ISSUED ABOUT 10 MINUTES AFTER THE HOUR.

NMZ501-503-504-510>518-220400-
NORTHWEST PLATEAU/NORTHCENTRAL MOUNTAINS

CITY           SKY/WX    TMP DP  RH WIND       PRES   REMARKS
FARMINGTON     PTCLDY    35  29  78 W5        29.93F WCI  31
SANTA FE       MOCLDY    33  26  75 CALM      29.89F
TAOS           CLOUDY    34  27  75 SW8       29.89F WCI  27

$$
NMZ402-403-502-505>509-220400-
WESTCENTRAL MOUNTAINS/SOUTHWEST MOUNTAINS

CITY           SKY/WX    TMP DP  RH WIND       PRES   REMARKS
GALLUP         CLEAR     37  30  75 SW13      30.04S WCI  29
GRANTS         PTCLDY    31  25  78 S5        30.02S WCI  27
SILVER CITY    PTCLDY    41  28  60 NW12      30.03S

$$
NMZ407-409-411-412-220400-
SOUTHERN DESERTS

CITY           SKY/WX    TMP DP  RH WIND       PRES   REMARKS
DEMING         CLEAR     48  28  46 W23G30    29.96F
HOLLOMAN AFB   PTCLDY    43  29  59 E6        29.88F
ALAMOGORDO     PTCLDY    50  27  40 NE6       29.89F
T OR C         CLEAR     54  29  38 NW15      29.92S

$$
NMZ519>523-220400-
CENTRAL VALLEYS/CENTRAL HIGHLANDS

CITY           SKY/WX    TMP DP  RH WIND       PRES   REMARKS
ALBUQUERQUE    PTCLDY    42  29  59 CALM      29.95R
DOUBLE EAGLE   CLEAR     34  27  75 S6        29.95S WCI  29
MORIARTY ARPT  FAIR      43  28  54 W12G17    29.93S
CLINES CORNERS CLEAR     36  26  67 W22       29.89R WCI  25
BELEN          FAIR      37  28  69 CALM      29.95R
SOCORRO        NOT AVBL

$$
NMZ524>526-539-540-220400-
SOUTHCENTRAL MOUNTAINS

CITY           SKY/WX    TMP DP  RH WIND       PRES   REMARKS
RUIDOSO        PTCLDY    48  25  40 W28G43    29.86F

$$
NMZ527>531-220400-
NORTHEAST HIGHLANDS/NORTHEAST PLAINS

CITY           SKY/WX    TMP DP  RH WIND       PRES   REMARKS
LAS VEGAS      PTCLDY    43  25  49 NW23G35   29.81R
RATON          PTCLDY    38  20  48 E6        29.66S WCI  33
CLAYTON        MOCLDY    46  25  43 W12       29.61R

$$
NMZ532>537-220400-
EASTCENTRAL PLAINS

CITY           SKY/WX    TMP DP  RH WIND       PRES   REMARKS
TUCUMCARI      CLEAR     49  26  41 W13       29.63R
CANNON AFB     PTCLDY    51  28  40 W21       29.66R
CLOVIS AIRPORT PTCLDY    50  27  40 W25G31    29.64R

$$
NMZ028-029-538-220400-
SOUTHEAST PLAINS

CITY           SKY/WX    TMP DP  RH WIND       PRES   REMARKS
ROSWELL        CLOUDY    54  26  34 W12       29.74F
ARTESIA        PTCLDY    55  28  35 SW17G26   29.75F
CARLSBAD       CLEAR     61  25  25 W26G33    29.74S
HOBBS          MOCLDY    54  27  35 W18       29.74F


$$


USA.gov is the U.S. government's official web portal to all federal, state and local government web resources and services.